Time,TemperatureF,DewpointF,PressureIn,WindDirection,WindDirectionDegrees,WindSpeedMPH,WindSpeedGustMPH,Humidity,HourlyPrecipIn,Conditions,Clouds,dailyrainin,SoftwareType,DateUTC
2013-07-30 00:01:00,77.8,68.8,30.13,WNW,301,6.0,9.0,74,0.00,,,0.00,Wunderground v.1.15,2013-07-30 04:01:00,
2013-07-30 00:02:00,77.8,69.2,30.13,WNW,300,7.0,9.0,75,0.00,,,0.00,Wunderground v.1.15,2013-07-30 04:02:00,
2013-07-30 00:03:00,77.8,68.4,30.13,WNW,301,7.0,9.0,73,0.00,,,0.00,Wunderground v.1.15,2013-07-30 04:03:00,
2013-07-30 00:05:00,77.8,69.6,30.13,WNW,301,8.0,9.0,76,0.00,,,0.00,Wunderground v.1.15,2013-07-30 04:05:00,
2013-07-30 00:10:00,77.5,68.2,30.13,WNW,302,7.0,7.0,73,0.00,,,0.00,Wunderground v.1.15,2013-07-30 04:10:00,
2013-07-30 00:15:00,77.4,67.3,30.13,NW,306,9.0,10.0,71,0.00,,,0.00,Wunderground v.1.15,2013-07-30 04:15:00,
2013-07-30 00:20:00,77.3,66.7,30.13,WNW,302,11.0,11.0,70,0.00,,,0.00,Wunderground v.1.15,2013-07-30 04:20:00,
2013-07-30 00:26:00,77.3,65.5,30.13,NW,310,9.0,11.0,67,0.00,,,0.00,Wunderground v.1.15,2013-07-30 04:26:00,
2013-07-30 00:32:00,77.4,68.1,30.13,NW,305,9.0,9.0,73,0.00,,,0.00,Wunderground v.1.15,2013-07-30 04:32:00,
2013-07-30 00:37:00,77.4,68.5,30.13,NW,309,8.0,10.0,74,0.00,,,0.00,Wunderground v.1.15,2013-07-30 04:37:00,
2013-07-30 00:43:00,77.4,68.5,30.12,NW,317,14.0,14.0,74,0.00,,,0.00,Wunderground v.1.15,2013-07-30 04:43:00,
2013-07-30 00:48:00,77.6,68.7,30.12,NW,318,14.0,15.0,74,0.00,,,0.00,Wunderground v.1.15,2013-07-30 04:48:00,
2013-07-30 00:53:00,77.7,67.5,30.12,NW,325,13.0,15.0,71,0.00,,,0.00,Wunderground v.1.15,2013-07-30 04:53:00,
2013-07-30 00:59:00,77.8,68.0,30.12,NW,322,15.0,15.0,72,0.00,,,0.00,Wunderground v.1.15,2013-07-30 04:59:00,
2013-07-30 01:04:00,77.7,68.0,30.12,NW,314,14.0,14.0,72,0.00,,,0.00,Wunderground v.1.15,2013-07-30 05:04:00,
2013-07-30 01:10:00,77.7,69.1,30.12,NW,322,15.0,15.0,75,0.00,,,0.00,Wunderground v.1.15,2013-07-30 05:10:00,
2013-07-30 01:15:00,77.6,68.3,30.12,NW,319,13.0,16.0,73,0.00,,,0.00,Wunderground v.1.15,2013-07-30 05:15:00,
2013-07-30 01:20:00,77.5,68.6,30.12,NW,318,16.0,16.0,74,0.00,,,0.00,Wunderground v.1.15,2013-07-30 05:20:00,
2013-07-30 01:25:00,77.4,68.9,30.12,NW,319,15.0,17.0,75,0.00,,,0.00,Wunderground v.1.15,2013-07-30 05:25:00,
2013-07-30 01:31:00,77.3,68.8,30.12,NW,317,16.0,16.0,75,0.00,,,0.00,Wunderground v.1.15,2013-07-30 05:31:00,
2013-07-30 01:36:00,77.3,67.6,30.12,NW,322,18.0,19.0,72,0.00,,,0.00,Wunderground v.1.15,2013-07-30 05:36:00,
2013-07-30 01:41:00,77.3,68.0,30.12,NW,321,19.0,19.0,73,0.00,,,0.00,Wunderground v.1.15,2013-07-30 05:41:00,
2013-07-30 01:47:00,77.4,67.7,30.13,NW,318,18.0,19.0,72,0.00,,,0.00,Wunderground v.1.15,2013-07-30 05:47:00,
2013-07-30 01:52:00,77.3,66.7,30.12,NW,321,18.0,19.0,70,0.00,,,0.00,Wunderground v.1.15,2013-07-30 05:52:00,
2013-07-30 01:58:00,77.3,67.6,30.13,NNW,328,16.0,20.0,72,0.00,,,0.00,Wunderground v.1.15,2013-07-30 05:58:00,
2013-07-30 02:03:00,77.2,67.5,30.12,NNW,327,17.0,20.0,72,0.00,,,0.00,Wunderground v.1.15,2013-07-30 06:03:00,
2013-07-30 02:08:00,77.1,67.0,30.12,NNW,327,16.0,20.0,71,0.00,,,0.00,Wunderground v.1.15,2013-07-30 06:08:00,
2013-07-30 02:13:00,77.0,67.7,30.12,NW,321,16.0,19.0,73,0.00,,,0.00,Wunderground v.1.15,2013-07-30 06:13:00,
2013-07-30 02:18:00,76.9,67.2,30.12,NW,323,17.0,20.0,72,0.00,,,0.00,Wunderground v.1.15,2013-07-30 06:18:00,
2013-07-30 02:23:00,76.7,67.0,30.12,NW,323,19.0,21.0,72,0.00,,,0.00,Wunderground v.1.15,2013-07-30 06:23:00,
2013-07-30 02:28:00,76.5,66.8,30.12,North,350,17.0,21.0,72,0.00,,,0.00,Wunderground v.1.15,2013-07-30 06:28:00,
2013-07-30 02:33:00,76.4,66.3,30.13,NNW,344,17.0,20.0,71,0.00,,,0.00,Wunderground v.1.15,2013-07-30 06:33:00,
2013-07-30 02:38:00,76.3,67.0,30.13,NNW,348,17.0,21.0,73,0.00,,,0.00,Wunderground v.1.15,2013-07-30 06:38:00,
2013-07-30 02:43:00,76.2,67.3,30.13,NW,326,19.0,19.0,74,0.00,,,0.00,Wunderground v.1.15,2013-07-30 06:43:00,
2013-07-30 02:48:00,76.0,65.9,30.13,NNW,329,12.0,20.0,71,0.00,,,0.00,Wunderground v.1.15,2013-07-30 06:48:00,
2013-07-30 02:53:00,75.8,66.1,30.13,NNW,338,18.0,18.0,72,0.00,,,0.00,Wunderground v.1.15,2013-07-30 06:53:00,
2013-07-30 02:58:00,75.5,66.2,30.13,NNW,333,14.0,19.0,73,0.00,,,0.00,Wunderground v.1.15,2013-07-30 06:58:00,
2013-07-30 03:03:00,75.2,65.9,30.13,NNW,333,7.0,16.0,73,0.00,,,0.00,Wunderground v.1.15,2013-07-30 07:03:00,
2013-07-30 03:08:00,75.0,65.4,30.13,North,355,4.0,16.0,72,0.00,,,0.00,Wunderground v.1.15,2013-07-30 07:08:00,
2013-07-30 03:13:00,74.7,65.9,30.13,NNW,329,11.0,12.0,74,0.00,,,0.00,Wunderground v.1.15,2013-07-30 07:13:00,
2013-07-30 03:18:00,74.5,66.1,30.13,NNE,17,4.0,13.0,75,0.00,,,0.00,Wunderground v.1.15,2013-07-30 07:18:00,
2013-07-30 03:23:00,74.3,65.5,30.13,North,11,5.0,12.0,74,0.00,,,0.00,Wunderground v.1.15,2013-07-30 07:23:00,
2013-07-30 03:28:00,74.3,65.9,30.13,North,360,5.0,14.0,75,0.00,,,0.00,Wunderground v.1.15,2013-07-30 07:28:00,
2013-07-30 03:33:00,74.2,65.8,30.13,North,355,6.0,9.0,75,0.00,,,0.00,Wunderground v.1.15,2013-07-30 07:33:00,
2013-07-30 03:38:00,74.1,65.3,30.13,NNW,333,2.0,9.0,74,0.00,,,0.00,Wunderground v.1.15,2013-07-30 07:38:00,
2013-07-30 03:43:00,73.9,65.1,30.13,NNE,19,5.0,10.0,74,0.00,,,0.00,Wunderground v.1.15,2013-07-30 07:43:00,
2013-07-30 03:48:00,73.9,65.1,30.13,NE,44,6.0,10.0,74,0.00,,,0.00,Wunderground v.1.15,2013-07-30 07:48:00,
2013-07-30 03:53:00,73.8,65.0,30.13,North,5,2.0,13.0,74,0.00,,,0.00,Wunderground v.1.15,2013-07-30 07:53:00,
2013-07-30 03:58:00,73.7,64.5,30.13,NNW,331,4.0,13.0,73,0.00,,,0.00,Wunderground v.1.15,2013-07-30 07:58:00,
2013-07-30 04:03:00,73.6,64.4,30.13,NNW,337,2.0,7.0,73,0.00,,,0.00,Wunderground v.1.15,2013-07-30 08:03:00,
2013-07-30 04:08:00,73.6,64.4,30.14,NNE,25,1.0,10.0,73,0.00,,,0.00,Wunderground v.1.15,2013-07-30 08:08:00,
2013-07-30 04:13:00,73.5,64.7,30.14,NNW,328,6.0,10.0,74,0.00,,,0.00,Wunderground v.1.15,2013-07-30 08:13:00,
2013-07-30 04:18:00,73.6,65.2,30.14,NNW,340,5.0,14.0,75,0.00,,,0.00,Wunderground v.1.15,2013-07-30 08:18:00,
2013-07-30 04:23:00,73.5,64.7,30.14,NNW,348,3.0,10.0,74,0.00,,,0.00,Wunderground v.1.15,2013-07-30 08:23:00,
2013-07-30 04:28:00,73.4,64.6,30.14,NNW,347,3.0,10.0,74,0.00,,,0.00,Wunderground v.1.15,2013-07-30 08:28:00,
2013-07-30 04:33:00,73.4,65.0,30.14,NNW,340,3.0,6.0,75,0.00,,,0.00,Wunderground v.1.15,2013-07-30 08:33:00,
2013-07-30 04:38:00,73.2,64.4,30.14,North,5,1.0,6.0,74,0.00,,,0.00,Wunderground v.1.15,2013-07-30 08:38:00,
2013-07-30 04:43:00,73.2,64.4,30.14,NNW,340,3.0,7.0,74,0.00,,,0.00,Wunderground v.1.15,2013-07-30 08:43:00,
2013-07-30 04:48:00,73.1,64.3,30.14,NNE,17,4.0,7.0,74,0.00,,,0.00,Wunderground v.1.15,2013-07-30 08:48:00,
2013-07-30 04:53:00,73.0,64.6,30.14,NNW,329,4.0,6.0,75,0.00,,,0.00,Wunderground v.1.15,2013-07-30 08:53:00,
2013-07-30 04:58:00,73.0,64.2,30.14,NNE,18,2.0,6.0,74,0.00,,,0.00,Wunderground v.1.15,2013-07-30 08:58:00,
2013-07-30 05:03:00,72.9,64.1,30.14,NNW,331,1.0,5.0,74,0.00,,,0.00,Wunderground v.1.15,2013-07-30 09:03:00,
2013-07-30 05:08:00,72.9,64.1,30.14,NNW,344,4.0,6.0,74,0.00,,,0.00,Wunderground v.1.15,2013-07-30 09:08:00,
2013-07-30 05:13:00,72.9,64.1,30.14,North,360,1.0,6.0,74,0.00,,,0.00,Wunderground v.1.15,2013-07-30 09:13:00,
2013-07-30 05:18:00,72.9,64.1,30.15,NE,36,4.0,7.0,74,0.00,,,0.00,Wunderground v.1.15,2013-07-30 09:18:00,
2013-07-30 05:23:00,72.9,64.1,30.15,NNW,348,2.0,7.0,74,0.00,,,0.00,Wunderground v.1.15,2013-07-30 09:23:00,
2013-07-30 05:28:00,72.9,64.1,30.15,NNW,342,0.0,7.0,74,0.00,,,0.00,Wunderground v.1.15,2013-07-30 09:28:00,
2013-07-30 05:33:00,72.9,64.1,30.15,ENE,75,6.0,8.0,74,0.00,,,0.00,Wunderground v.1.15,2013-07-30 09:33:00,
2013-07-30 05:39:00,72.9,64.5,30.15,NNW,329,2.0,8.0,75,0.00,,,0.00,Wunderground v.1.15,2013-07-30 09:39:00,
2013-07-30 05:44:00,73.0,65.4,30.15,NNW,330,4.0,10.0,77,0.00,,,0.00,Wunderground v.1.15,2013-07-30 09:44:00,
2013-07-30 05:49:00,73.0,65.0,30.15,NNW,333,1.0,10.0,76,0.00,,,0.00,Wunderground v.1.15,2013-07-30 09:49:00,
2013-07-30 05:54:00,72.9,64.5,30.15,NNE,14,3.0,6.0,75,0.00,,,0.00,Wunderground v.1.15,2013-07-30 09:54:00,
2013-07-30 05:59:00,72.8,64.4,30.16,NNW,340,3.0,6.0,75,0.00,,,0.00,Wunderground v.1.15,2013-07-30 09:59:00,
2013-07-30 06:04:00,72.8,64.4,30.16,NNW,346,1.0,5.0,75,0.00,,,0.00,Wunderground v.1.15,2013-07-30 10:04:00,
2013-07-30 06:09:00,72.8,64.8,30.16,ENE,57,2.0,6.0,76,0.00,,,0.00,Wunderground v.1.15,2013-07-30 10:09:00,
2013-07-30 06:14:00,72.7,64.7,30.16,NE,47,0.0,4.0,76,0.00,,,0.00,Wunderground v.1.15,2013-07-30 10:14:00,
2013-07-30 06:19:00,72.7,65.1,30.16,NE,43,3.0,5.0,77,0.00,,,0.00,Wunderground v.1.15,2013-07-30 10:19:00,
2013-07-30 06:24:00,72.5,64.9,30.16,NE,43,0.0,2.0,77,0.00,,,0.00,Wunderground v.1.15,2013-07-30 10:24:00,
2013-07-30 06:29:00,72.4,64.8,30.17,NE,43,2.0,2.0,77,0.00,,,0.00,Wunderground v.1.15,2013-07-30 10:29:00,
2013-07-30 06:34:00,72.3,64.7,30.17,NE,42,1.0,4.0,77,0.00,,,0.00,Wunderground v.1.15,2013-07-30 10:34:00,
2013-07-30 06:39:00,72.3,65.4,30.17,NNE,17,0.0,6.0,79,0.00,,,0.00,Wunderground v.1.15,2013-07-30 10:39:00,
2013-07-30 06:44:00,72.3,65.8,30.17,NNE,26,1.0,5.0,80,0.00,,,0.00,Wunderground v.1.15,2013-07-30 10:44:00,
2013-07-30 06:49:00,72.3,65.8,30.17,NNE,26,3.0,5.0,80,0.00,,,0.00,Wunderground v.1.15,2013-07-30 10:49:00,
2013-07-30 06:54:00,72.2,65.7,30.17,NNE,26,1.0,2.0,80,0.00,,,0.00,Wunderground v.1.15,2013-07-30 10:54:00,
2013-07-30 06:59:00,72.2,65.7,30.17,NNE,26,0.0,2.0,80,0.00,,,0.00,Wunderground v.1.15,2013-07-30 10:59:00,
2013-07-30 07:04:00,72.2,65.7,30.17,NNE,26,0.0,1.0,80,0.00,,,0.00,Wunderground v.1.15,2013-07-30 11:04:00,
2013-07-30 07:09:00,72.1,65.6,30.18,NNE,26,2.0,2.0,80,0.00,,,0.00,Wunderground v.1.15,2013-07-30 11:09:00,
2013-07-30 07:14:00,72.1,65.6,30.18,NNE,26,0.0,1.0,80,0.00,,,0.00,Wunderground v.1.15,2013-07-30 11:14:00,
2013-07-30 07:19:00,72.0,65.1,30.18,NNE,26,0.0,2.0,79,0.00,,,0.00,Wunderground v.1.15,2013-07-30 11:19:00,
2013-07-30 07:24:00,71.9,65.0,30.18,NNE,26,0.0,1.0,79,0.00,,,0.00,Wunderground v.1.15,2013-07-30 11:24:00,
2013-07-30 07:29:00,72.0,65.5,30.18,North,10,0.0,4.0,80,0.00,,,0.00,Wunderground v.1.15,2013-07-30 11:29:00,
2013-07-30 07:34:00,72.1,65.6,30.18,North,360,2.0,5.0,80,0.00,,,0.00,Wunderground v.1.15,2013-07-30 11:34:00,
2013-07-30 07:39:00,72.2,65.7,30.18,NNW,328,6.0,7.0,80,0.00,,,0.00,Wunderground v.1.15,2013-07-30 11:39:00,
2013-07-30 07:44:00,72.5,66.0,30.18,NNW,333,7.0,9.0,80,0.00,,,0.00,Wunderground v.1.15,2013-07-30 11:44:00,
2013-07-30 07:49:00,72.7,66.9,30.19,NNW,329,9.0,12.0,82,0.00,,,0.00,Wunderground v.1.15,2013-07-30 11:49:00,
2013-07-30 07:54:00,72.8,67.0,30.19,NNW,329,10.0,11.0,82,0.00,,,0.00,Wunderground v.1.15,2013-07-30 11:54:00,
2013-07-30 07:59:00,72.7,66.9,30.19,NNW,329,10.0,11.0,82,0.00,,,0.00,Wunderground v.1.15,2013-07-30 11:59:00,
2013-07-30 08:04:00,72.6,66.4,30.19,NNW,336,6.0,10.0,81,0.00,,,0.00,Wunderground v.1.15,2013-07-30 12:04:00,
2013-07-30 08:09:00,72.6,66.8,30.19,NNW,330,7.0,10.0,82,0.00,,,0.00,Wunderground v.1.15,2013-07-30 12:09:00,
2013-07-30 08:14:00,72.6,66.8,30.19,NNW,331,9.0,10.0,82,0.00,,,0.00,Wunderground v.1.15,2013-07-30 12:14:00,
2013-07-30 08:19:00,72.5,66.3,30.20,NW,319,11.0,11.0,81,0.00,,,0.00,Wunderground v.1.15,2013-07-30 12:19:00,
2013-07-30 08:24:00,72.6,66.8,30.19,NNW,338,4.0,11.0,82,0.00,,,0.00,Wunderground v.1.15,2013-07-30 12:24:00,
2013-07-30 08:29:00,72.6,66.8,30.19,NNW,333,2.0,11.0,82,0.00,,,0.00,Wunderground v.1.15,2013-07-30 12:29:00,
2013-07-30 08:34:00,72.6,67.1,30.20,NNW,348,4.0,11.0,83,0.00,,,0.00,Wunderground v.1.15,2013-07-30 12:34:00,
2013-07-30 08:39:00,72.7,66.9,30.20,NNW,348,4.0,11.0,82,0.00,,,0.00,Wunderground v.1.15,2013-07-30 12:39:00,
2013-07-30 08:44:00,72.9,67.1,30.19,NNW,338,2.0,6.0,82,0.00,,,0.00,Wunderground v.1.15,2013-07-30 12:44:00,
2013-07-30 08:49:00,73.1,67.3,30.19,NNW,333,2.0,8.0,82,0.00,,,0.00,Wunderground v.1.15,2013-07-30 12:49:00,
2013-07-30 08:54:00,73.3,67.1,30.19,NW,323,4.0,6.0,81,0.00,,,0.00,Wunderground v.1.15,2013-07-30 12:54:00,
2013-07-30 08:59:00,73.4,66.9,30.19,NW,323,6.0,7.0,80,0.00,,,0.00,Wunderground v.1.15,2013-07-30 12:59:00,
2013-07-30 09:04:00,73.5,66.6,30.19,NNW,327,2.0,10.0,79,0.00,,,0.00,Wunderground v.1.15,2013-07-30 13:04:00,
2013-07-30 09:09:00,73.7,66.8,30.19,NNW,329,0.0,10.0,79,0.00,,,0.00,Wunderground v.1.15,2013-07-30 13:09:00,
2013-07-30 09:14:00,73.9,66.6,30.19,NNW,327,5.0,9.0,78,0.00,,,0.00,Wunderground v.1.15,2013-07-30 13:14:00,
2013-07-30 09:19:00,73.9,66.2,30.19,NW,324,4.0,9.0,77,0.00,,,0.00,Wunderground v.1.15,2013-07-30 13:19:00,
2013-07-30 09:24:00,74.0,66.3,30.19,NW,322,6.0,8.0,77,0.00,,,0.00,Wunderground v.1.15,2013-07-30 13:24:00,
2013-07-30 09:29:00,74.1,66.8,30.19,NW,326,7.0,9.0,78,0.00,,,0.00,Wunderground v.1.15,2013-07-30 13:29:00,
2013-07-30 09:34:00,74.1,66.0,30.19,NW,326,3.0,9.0,76,0.00,,,0.00,Wunderground v.1.15,2013-07-30 13:34:00,
2013-07-30 09:39:00,74.2,67.3,30.19,NW,326,3.0,9.0,79,0.00,,,0.00,Wunderground v.1.15,2013-07-30 13:39:00,
2013-07-30 09:44:00,74.3,67.0,30.19,NW,326,5.0,10.0,78,0.00,,,0.00,Wunderground v.1.15,2013-07-30 13:44:00,
2013-07-30 09:49:00,74.3,66.6,30.19,NW,326,8.0,10.0,77,0.00,,,0.00,Wunderground v.1.15,2013-07-30 13:49:00,
2013-07-30 09:54:00,74.4,67.1,30.19,NNW,331,3.0,9.0,78,0.00,,,0.00,Wunderground v.1.15,2013-07-30 13:54:00,
2013-07-30 09:59:00,74.4,66.3,30.19,NNW,329,6.0,9.0,76,0.00,,,0.00,Wunderground v.1.15,2013-07-30 13:59:00,
2013-07-30 10:04:00,74.4,66.3,30.20,NNW,329,6.0,7.0,76,0.00,,,0.00,Wunderground v.1.15,2013-07-30 14:04:00,
2013-07-30 10:09:00,74.4,66.0,30.20,NNW,329,4.0,7.0,75,0.00,,,0.00,Wunderground v.1.15,2013-07-30 14:09:00,
2013-07-30 10:14:00,74.4,65.6,30.20,NNW,329,3.0,7.0,74,0.00,,,0.00,Wunderground v.1.15,2013-07-30 14:14:00,
2013-07-30 10:19:00,74.5,66.1,30.19,NNW,329,5.0,7.0,75,0.00,,,0.00,Wunderground v.1.15,2013-07-30 14:19:00,
2013-07-30 10:24:00,74.6,65.8,30.20,NNW,329,6.0,6.0,74,0.00,,,0.00,Wunderground v.1.15,2013-07-30 14:24:00,
2013-07-30 10:29:00,74.7,66.2,30.20,NNW,329,3.0,6.0,75,0.00,,,0.00,Wunderground v.1.15,2013-07-30 14:29:00,
2013-07-30 10:34:00,74.7,65.1,30.20,NNW,329,4.0,7.0,72,0.00,,,0.00,Wunderground v.1.15,2013-07-30 14:34:00,
2013-07-30 10:39:00,74.7,65.1,30.20,NNW,329,5.0,7.0,72,0.00,,,0.00,Wunderground v.1.15,2013-07-30 14:39:00,
2013-07-30 10:44:00,74.8,64.8,30.20,NNW,329,5.0,7.0,71,0.00,,,0.00,Wunderground v.1.15,2013-07-30 14:44:00,
2013-07-30 10:49:00,74.8,65.6,30.20,NNW,329,5.0,7.0,73,0.00,,,0.00,Wunderground v.1.15,2013-07-30 14:49:00,
2013-07-30 10:54:00,74.8,64.8,30.20,NNW,329,3.0,6.0,71,0.00,,,0.00,Wunderground v.1.15,2013-07-30 14:54:00,
2013-07-30 10:59:00,74.9,63.6,30.20,NNW,329,2.0,6.0,68,0.00,,,0.00,Wunderground v.1.15,2013-07-30 14:59:00,
2013-07-30 11:04:00,75.0,63.7,30.20,NNW,329,5.0,6.0,68,0.00,,,0.00,Wunderground v.1.15,2013-07-30 15:04:00,
2013-07-30 11:09:00,75.1,63.8,30.19,NNW,329,3.0,6.0,68,0.00,,,0.00,Wunderground v.1.15,2013-07-30 15:09:00,
2013-07-30 11:14:00,75.2,63.1,30.19,NNW,329,3.0,5.0,66,0.00,,,0.00,Wunderground v.1.15,2013-07-30 15:14:00,
2013-07-30 11:19:00,75.3,63.6,30.19,NNW,329,3.0,5.0,67,0.00,,,0.00,Wunderground v.1.15,2013-07-30 15:19:00,
2013-07-30 11:24:00,75.5,63.8,30.19,NNW,329,4.0,4.0,67,0.00,,,0.00,Wunderground v.1.15,2013-07-30 15:24:00,
2013-07-30 11:29:00,75.6,64.3,30.19,NNW,329,2.0,6.0,68,0.00,,,0.00,Wunderground v.1.15,2013-07-30 15:29:00,
2013-07-30 11:34:00,75.7,64.4,30.19,NNW,329,2.0,5.0,68,0.00,,,0.00,Wunderground v.1.15,2013-07-30 15:34:00,
2013-07-30 11:39:00,75.7,65.2,30.19,NNW,329,5.0,6.0,70,0.00,,,0.00,Wunderground v.1.15,2013-07-30 15:39:00,
2013-07-30 11:44:00,76.0,65.9,30.18,NNW,329,2.0,4.0,71,0.00,,,0.00,Wunderground v.1.15,2013-07-30 15:44:00,
2013-07-30 11:49:00,76.1,63.9,30.18,NNW,329,3.0,4.0,66,0.00,,,0.00,Wunderground v.1.15,2013-07-30 15:49:00,
2013-07-30 11:54:00,76.2,65.3,30.18,NNW,329,4.0,6.0,69,0.00,,,0.00,Wunderground v.1.15,2013-07-30 15:54:00,
2013-07-30 11:59:00,76.2,64.4,30.18,NNW,329,4.0,6.0,67,0.00,,,0.00,Wunderground v.1.15,2013-07-30 15:59:00,
2013-07-30 12:04:00,76.1,65.2,30.18,NNW,329,4.0,6.0,69,0.00,,,0.00,Wunderground v.1.15,2013-07-30 16:04:00,
2013-07-30 12:09:00,76.1,64.8,30.18,NNW,329,4.0,6.0,68,0.00,,,0.00,Wunderground v.1.15,2013-07-30 16:09:00,
2013-07-30 12:14:00,76.0,63.8,30.18,NNW,329,4.0,6.0,66,0.00,,,0.00,Wunderground v.1.15,2013-07-30 16:14:00,
2013-07-30 12:19:00,75.9,63.7,30.18,NNW,329,4.0,6.0,66,0.00,,,0.00,Wunderground v.1.15,2013-07-30 16:19:00,
2013-07-30 12:24:00,76.0,64.2,30.18,NNW,329,6.0,6.0,67,0.00,,,0.00,Wunderground v.1.15,2013-07-30 16:24:00,
2013-07-30 12:29:00,76.0,63.4,30.18,NNW,329,4.0,7.0,65,0.00,,,0.00,Wunderground v.1.15,2013-07-30 16:29:00,
2013-07-30 12:34:00,76.1,64.3,30.18,NNW,329,6.0,6.0,67,0.00,,,0.00,Wunderground v.1.15,2013-07-30 16:34:00,
2013-07-30 12:39:00,76.1,63.9,30.18,NNW,329,5.0,7.0,66,0.00,,,0.00,Wunderground v.1.15,2013-07-30 16:39:00,
2013-07-30 12:44:00,76.0,62.9,30.18,NNW,329,4.0,6.0,64,0.00,,,0.00,Wunderground v.1.15,2013-07-30 16:44:00,
2013-07-30 12:49:00,76.1,63.5,30.18,NNW,329,2.0,6.0,65,0.00,,,0.00,Wunderground v.1.15,2013-07-30 16:49:00,
2013-07-30 12:54:00,76.2,62.7,30.18,NNW,329,1.0,4.0,63,0.00,,,0.00,Wunderground v.1.15,2013-07-30 16:54:00,
2013-07-30 13:00:00,76.5,64.7,30.18,NNW,329,1.0,4.0,67,0.00,,,0.00,Wunderground v.1.15,2013-07-30 17:00:00,
2013-07-30 13:05:00,76.9,64.2,30.18,NNW,329,1.0,3.0,65,0.00,,,0.00,Wunderground v.1.15,2013-07-30 17:05:00,
2013-07-30 13:10:00,77.1,63.5,30.18,NNW,329,1.0,3.0,63,0.00,,,0.00,Wunderground v.1.15,2013-07-30 17:10:00,
2013-07-30 13:15:00,77.3,63.7,30.17,NNW,329,1.0,3.0,63,0.00,,,0.00,Wunderground v.1.15,2013-07-30 17:15:00,
2013-07-30 13:20:00,77.6,65.8,30.17,NNW,329,1.0,1.0,67,0.00,,,0.00,Wunderground v.1.15,2013-07-30 17:20:00,
2013-07-30 13:25:00,78.3,65.6,30.17,NNW,329,0.0,1.0,65,0.00,,,0.00,Wunderground v.1.15,2013-07-30 17:25:00,
2013-07-30 13:30:00,78.9,67.0,30.17,NNW,329,2.0,2.0,67,0.00,,,0.00,Wunderground v.1.15,2013-07-30 17:30:00,
2013-07-30 13:35:00,79.3,65.6,30.17,NNW,329,1.0,2.0,63,0.00,,,0.00,Wunderground v.1.15,2013-07-30 17:35:00,
2013-07-30 13:40:00,79.8,66.1,30.17,NNW,329,1.0,1.0,63,0.00,,,0.00,Wunderground v.1.15,2013-07-30 17:40:00,
2013-07-30 13:45:00,80.3,66.6,30.17,NNW,329,0.0,2.0,63,0.00,,,0.00,Wunderground v.1.15,2013-07-30 17:45:00,
2013-07-30 13:50:00,80.9,67.1,30.17,NNW,329,1.0,2.0,63,0.00,,,0.00,Wunderground v.1.15,2013-07-30 17:50:00,
2013-07-30 13:55:00,81.4,67.6,30.17,NNW,329,3.0,4.0,63,0.00,,,0.00,Wunderground v.1.15,2013-07-30 17:55:00,
2013-07-30 14:00:00,81.6,66.8,30.17,NNW,329,3.0,4.0,61,0.00,,,0.00,Wunderground v.1.15,2013-07-30 18:00:00,
2013-07-30 14:05:00,81.1,66.8,30.17,NNW,329,2.0,5.0,62,0.00,,,0.00,Wunderground v.1.15,2013-07-30 18:05:00,
2013-07-30 14:10:00,80.6,66.8,30.17,NNW,329,2.0,3.0,63,0.00,,,0.00,Wunderground v.1.15,2013-07-30 18:10:00,
2013-07-30 14:15:00,80.3,67.0,30.17,NNW,329,1.0,4.0,64,0.00,,,0.00,Wunderground v.1.15,2013-07-30 18:15:00,
2013-07-30 14:20:00,80.3,67.5,30.16,WNW,297,5.0,5.0,65,0.00,,,0.00,Wunderground v.1.15,2013-07-30 18:20:00,
2013-07-30 14:25:00,80.2,65.5,30.16,SSW,207,2.0,6.0,61,0.00,,,0.00,Wunderground v.1.15,2013-07-30 18:25:00,
2013-07-30 14:30:00,80.0,65.8,30.16,SSW,200,4.0,4.0,62,0.00,,,0.00,Wunderground v.1.15,2013-07-30 18:30:00,
2013-07-30 14:35:00,80.2,67.4,30.16,SSW,199,6.0,6.0,65,0.00,,,0.00,Wunderground v.1.15,2013-07-30 18:35:00,
2013-07-30 14:40:00,80.4,67.1,30.16,SSW,198,2.0,4.0,64,0.00,,,0.00,Wunderground v.1.15,2013-07-30 18:40:00,
2013-07-30 14:45:00,80.5,66.3,30.16,SSW,196,2.0,6.0,62,0.00,,,0.00,Wunderground v.1.15,2013-07-30 18:45:00,
2013-07-30 14:50:00,80.3,66.6,30.16,SSW,195,4.0,5.0,63,0.00,,,0.00,Wunderground v.1.15,2013-07-30 18:50:00,
2013-07-30 14:55:00,80.2,66.0,30.15,SSW,194,3.0,6.0,62,0.00,,,0.00,Wunderground v.1.15,2013-07-30 18:55:00,
2013-07-30 15:00:00,80.2,66.5,30.15,SSW,195,4.0,5.0,63,0.00,,,0.00,Wunderground v.1.15,2013-07-30 19:00:00,
2013-07-30 15:05:00,80.2,66.0,30.15,SSW,195,4.0,5.0,62,0.00,,,0.00,Wunderground v.1.15,2013-07-30 19:05:00,
2013-07-30 15:10:00,80.1,65.9,30.15,SSW,195,3.0,4.0,62,0.00,,,0.00,Wunderground v.1.15,2013-07-30 19:10:00,
2013-07-30 15:15:00,79.9,66.2,30.15,SSW,195,3.0,6.0,63,0.00,,,0.00,Wunderground v.1.15,2013-07-30 19:15:00,
2013-07-30 15:20:00,79.9,66.2,30.14,SSW,194,2.0,4.0,63,0.00,,,0.00,Wunderground v.1.15,2013-07-30 19:20:00,
2013-07-30 15:25:00,80.0,66.7,30.14,SSW,192,4.0,6.0,64,0.00,,,0.00,Wunderground v.1.15,2013-07-30 19:25:00,
2013-07-30 15:30:00,80.1,66.4,30.14,SSW,193,4.0,4.0,63,0.00,,,0.00,Wunderground v.1.15,2013-07-30 19:30:00,
2013-07-30 15:35:00,80.0,66.3,30.14,SSW,193,3.0,6.0,63,0.00,,,0.00,Wunderground v.1.15,2013-07-30 19:35:00,
2013-07-30 15:40:00,80.0,66.7,30.14,SSW,193,1.0,4.0,64,0.00,,,0.00,Wunderground v.1.15,2013-07-30 19:40:00,
2013-07-30 15:45:00,80.2,66.5,30.14,SSW,192,2.0,6.0,63,0.00,,,0.00,Wunderground v.1.15,2013-07-30 19:45:00,
2013-07-30 15:50:00,80.4,66.2,30.14,SSW,193,1.0,4.0,62,0.00,,,0.00,Wunderground v.1.15,2013-07-30 19:50:00,
2013-07-30 15:55:00,80.6,66.4,30.14,SSW,194,3.0,7.0,62,0.00,,,0.00,Wunderground v.1.15,2013-07-30 19:55:00,
2013-07-30 16:00:00,80.6,66.4,30.14,SSW,192,1.0,3.0,62,0.00,,,0.00,Wunderground v.1.15,2013-07-30 20:00:00,
2013-07-30 16:05:00,80.7,67.8,30.13,SSW,193,3.0,4.0,65,0.00,,,0.00,Wunderground v.1.15,2013-07-30 20:05:00,
2013-07-30 16:10:00,80.7,66.9,30.13,SSW,193,3.0,4.0,63,0.00,,,0.00,Wunderground v.1.15,2013-07-30 20:10:00,
2013-07-30 16:15:00,80.5,66.7,30.13,SSW,192,2.0,5.0,63,0.00,,,0.00,Wunderground v.1.15,2013-07-30 20:15:00,
2013-07-30 16:20:00,80.3,67.5,30.13,SSW,193,3.0,5.0,65,0.00,,,0.00,Wunderground v.1.15,2013-07-30 20:20:00,
2013-07-30 16:25:00,80.1,67.3,30.13,SSW,193,2.0,5.0,65,0.00,,,0.00,Wunderground v.1.15,2013-07-30 20:25:00,
2013-07-30 16:30:00,80.1,66.8,30.13,SSW,194,7.0,7.0,64,0.00,,,0.00,Wunderground v.1.15,2013-07-30 20:30:00,
2013-07-30 16:35:00,80.1,66.4,30.13,SSW,194,3.0,7.0,63,0.00,,,0.00,Wunderground v.1.15,2013-07-30 20:35:00,
2013-07-30 16:41:00,80.3,67.5,30.13,SSW,194,3.0,3.0,65,0.00,,,0.00,Wunderground v.1.15,2013-07-30 20:41:00,
2013-07-30 16:46:00,80.6,66.4,30.13,SSW,194,2.0,5.0,62,0.00,,,0.00,Wunderground v.1.15,2013-07-30 20:46:00,
2013-07-30 16:51:00,81.0,67.2,30.13,SSW,194,3.0,5.0,63,0.00,,,0.00,Wunderground v.1.15,2013-07-30 20:51:00,
2013-07-30 16:56:00,81.2,67.4,30.13,SSW,194,4.0,5.0,63,0.00,,,0.00,Wunderground v.1.15,2013-07-30 20:56:00,
2013-07-30 17:01:00,81.4,68.5,30.13,SSW,194,5.0,5.0,65,0.00,,,0.00,Wunderground v.1.15,2013-07-30 21:01:00,
2013-07-30 17:06:00,81.4,68.1,30.13,SSW,194,3.0,5.0,64,0.00,,,0.00,Wunderground v.1.15,2013-07-30 21:06:00,
2013-07-30 17:11:00,81.4,68.1,30.13,SSW,194,3.0,3.0,64,0.00,,,0.00,Wunderground v.1.15,2013-07-30 21:11:00,
2013-07-30 17:16:00,81.4,67.6,30.13,SSW,194,4.0,5.0,63,0.00,,,0.00,Wunderground v.1.15,2013-07-30 21:16:00,
2013-07-30 17:21:00,81.1,67.3,30.13,SSW,194,4.0,4.0,63,0.00,,,0.00,Wunderground v.1.15,2013-07-30 21:21:00,
2013-07-30 17:26:00,80.8,67.5,30.13,SSW,194,2.0,5.0,64,0.00,,,0.00,Wunderground v.1.15,2013-07-30 21:26:00,
2013-07-30 17:32:00,80.6,68.2,30.13,SSW,196,6.0,7.0,66,0.00,,,0.00,Wunderground v.1.15,2013-07-30 21:32:00,
2013-07-30 17:37:00,80.3,68.3,30.13,SSW,196,4.0,7.0,67,0.00,,,0.00,Wunderground v.1.15,2013-07-30 21:37:00,
2013-07-30 17:42:00,80.3,68.8,30.13,SSW,196,3.0,5.0,68,0.00,,,0.00,Wunderground v.1.15,2013-07-30 21:42:00,
2013-07-30 17:47:00,80.3,68.8,30.13,SSW,199,4.0,9.0,68,0.00,,,0.00,Wunderground v.1.15,2013-07-30 21:47:00,
2013-07-30 17:52:00,80.4,69.7,30.13,SSW,196,7.0,9.0,70,0.00,,,0.00,Wunderground v.1.15,2013-07-30 21:52:00,
2013-07-30 17:57:00,80.3,68.3,30.12,SSW,195,5.0,9.0,67,0.00,,,0.00,Wunderground v.1.15,2013-07-30 21:57:00,
2013-07-30 18:02:00,80.3,68.3,30.13,South,188,6.0,9.0,67,0.00,,,0.00,Wunderground v.1.15,2013-07-30 22:02:00,
2013-07-30 18:08:00,80.1,69.0,30.13,South,190,6.0,9.0,69,0.00,,,0.00,Wunderground v.1.15,2013-07-30 22:08:00,
2013-07-30 18:13:00,80.0,68.1,30.13,South,190,8.0,8.0,67,0.00,,,0.00,Wunderground v.1.15,2013-07-30 22:13:00,
2013-07-30 18:18:00,79.8,68.3,30.13,SSW,194,6.0,10.0,68,0.00,,,0.00,Wunderground v.1.15,2013-07-30 22:18:00,
2013-07-30 18:23:00,79.7,68.2,30.13,SSW,194,7.0,10.0,68,0.00,,,0.00,Wunderground v.1.15,2013-07-30 22:23:00,
2013-07-30 18:28:00,79.6,68.1,30.13,SSW,195,6.0,10.0,68,0.00,,,0.00,Wunderground v.1.15,2013-07-30 22:28:00,
2013-07-30 18:33:00,79.6,68.5,30.13,SSW,193,4.0,7.0,69,0.00,,,0.00,Wunderground v.1.15,2013-07-30 22:33:00,
2013-07-30 18:38:00,79.6,69.0,30.13,SSW,194,6.0,9.0,70,0.00,,,0.00,Wunderground v.1.15,2013-07-30 22:38:00,
2013-07-30 18:43:00,79.7,69.0,30.13,SSW,194,4.0,7.0,70,0.00,,,0.00,Wunderground v.1.15,2013-07-30 22:43:00,
2013-07-30 18:48:00,79.8,69.1,30.13,SSW,194,5.0,7.0,70,0.00,,,0.00,Wunderground v.1.15,2013-07-30 22:48:00,
2013-07-30 18:53:00,79.7,69.0,30.13,SSW,194,7.0,7.0,70,0.00,,,0.00,Wunderground v.1.15,2013-07-30 22:53:00,
2013-07-30 18:58:00,79.6,68.5,30.13,SSW,194,4.0,7.0,69,0.00,,,0.00,Wunderground v.1.15,2013-07-30 22:58:00,
2013-07-30 19:03:00,79.5,68.0,30.13,SSW,194,5.0,6.0,68,0.00,,,0.00,Wunderground v.1.15,2013-07-30 23:03:00,
2013-07-30 19:08:00,79.5,68.4,30.12,SSW,194,7.0,7.0,69,0.00,,,0.00,Wunderground v.1.15,2013-07-30 23:08:00,
2013-07-30 19:13:00,79.4,67.9,30.12,SSW,194,7.0,7.0,68,0.00,,,0.00,Wunderground v.1.15,2013-07-30 23:13:00,
2013-07-30 19:18:00,79.4,68.3,30.12,SSW,194,1.0,7.0,69,0.00,,,0.00,Wunderground v.1.15,2013-07-30 23:18:00,
2013-07-30 19:23:00,79.2,69.0,30.13,SSW,194,6.0,6.0,71,0.00,,,0.00,Wunderground v.1.15,2013-07-30 23:23:00,
2013-07-30 19:28:00,79.2,69.0,30.13,SSW,194,3.0,6.0,71,0.00,,,0.00,Wunderground v.1.15,2013-07-30 23:28:00,
2013-07-30 19:33:00,79.2,68.6,30.13,SSW,194,4.0,6.0,70,0.00,,,0.00,Wunderground v.1.15,2013-07-30 23:33:00,
2013-07-30 19:38:00,79.1,68.1,30.12,SSW,194,4.0,6.0,69,0.00,,,0.00,Wunderground v.1.15,2013-07-30 23:38:00,
2013-07-30 19:43:00,79.1,68.1,30.12,SSW,194,4.0,5.0,69,0.00,,,0.00,Wunderground v.1.15,2013-07-30 23:43:00,
2013-07-30 19:48:00,79.1,69.3,30.13,SSW,194,3.0,5.0,72,0.00,,,0.00,Wunderground v.1.15,2013-07-30 23:48:00,
2013-07-30 19:53:00,79.1,69.3,30.12,SSW,194,3.0,6.0,72,0.00,,,0.00,Wunderground v.1.15,2013-07-30 23:53:00,
2013-07-30 19:58:00,79.1,68.5,30.12,SSW,194,3.0,6.0,70,0.00,,,0.00,Wunderground v.1.15,2013-07-30 23:58:00,
2013-07-30 20:03:00,79.0,69.2,30.12,SSW,194,4.0,4.0,72,0.00,,,0.00,Wunderground v.1.15,2013-07-31 00:03:00,
2013-07-30 20:08:00,78.9,68.7,30.12,SSW,194,2.0,5.0,71,0.00,,,0.00,Wunderground v.1.15,2013-07-31 00:08:00,
2013-07-30 20:13:00,78.9,68.7,30.12,SSW,194,3.0,5.0,71,0.00,,,0.00,Wunderground v.1.15,2013-07-31 00:13:00,
2013-07-30 20:18:00,78.9,69.5,30.12,SSW,196,4.0,6.0,73,0.00,,,0.00,Wunderground v.1.15,2013-07-31 00:18:00,
2013-07-30 20:23:00,78.8,69.4,30.12,SSW,196,3.0,7.0,73,0.00,,,0.00,Wunderground v.1.15,2013-07-31 00:23:00,
2013-07-30 20:28:00,78.7,68.5,30.12,SSW,197,4.0,7.0,71,0.00,,,0.00,Wunderground v.1.15,2013-07-31 00:28:00,
2013-07-30 20:33:00,78.7,66.8,30.12,SSW,202,2.0,6.0,67,0.00,,,0.00,Wunderground v.1.15,2013-07-31 00:33:00,
2013-07-30 20:38:00,78.7,68.1,30.13,SSW,202,4.0,6.0,70,0.00,,,0.00,Wunderground v.1.15,2013-07-31 00:38:00,
2013-07-30 20:43:00,78.7,68.5,30.13,SSW,202,4.0,5.0,71,0.00,,,0.00,Wunderground v.1.15,2013-07-31 00:43:00,
2013-07-30 20:48:00,78.8,68.6,30.12,SSW,202,3.0,5.0,71,0.00,,,0.00,Wunderground v.1.15,2013-07-31 00:48:00,
2013-07-30 20:53:00,78.9,67.9,30.12,SW,225,4.0,5.0,69,0.00,,,0.00,Wunderground v.1.15,2013-07-31 00:53:00,
2013-07-30 20:58:00,78.9,68.7,30.13,SW,236,4.0,6.0,71,0.00,,,0.00,Wunderground v.1.15,2013-07-31 00:58:00,
2013-07-30 21:03:00,78.9,68.3,30.13,SW,236,5.0,6.0,70,0.00,,,0.00,Wunderground v.1.15,2013-07-31 01:03:00,
2013-07-30 21:08:00,78.9,68.7,30.12,WSW,250,5.0,7.0,71,0.00,,,0.00,Wunderground v.1.15,2013-07-31 01:08:00,
2013-07-30 21:14:00,78.9,69.1,30.13,WSW,257,4.0,7.0,72,0.00,,,0.00,Wunderground v.1.15,2013-07-31 01:14:00,
2013-07-30 21:19:00,78.9,68.7,30.13,WSW,256,4.0,7.0,71,0.00,,,0.00,Wunderground v.1.15,2013-07-31 01:19:00,
2013-07-30 21:24:00,78.9,68.7,30.13,West,261,5.0,6.0,71,0.00,,,0.00,Wunderground v.1.15,2013-07-31 01:24:00,
2013-07-30 21:29:00,78.8,67.8,30.13,West,261,6.0,6.0,69,0.00,,,0.00,Wunderground v.1.15,2013-07-31 01:29:00,
2013-07-30 21:34:00,78.8,68.6,30.13,West,261,6.0,7.0,71,0.00,,,0.00,Wunderground v.1.15,2013-07-31 01:34:00,
2013-07-30 21:39:00,78.8,68.2,30.13,West,261,4.0,7.0,70,0.00,,,0.00,Wunderground v.1.15,2013-07-31 01:39:00,
2013-07-30 21:44:00,78.8,68.6,30.13,West,262,5.0,7.0,71,0.00,,,0.00,Wunderground v.1.15,2013-07-31 01:44:00,
2013-07-30 21:49:00,78.8,68.6,30.13,West,261,6.0,7.0,71,0.00,,,0.00,Wunderground v.1.15,2013-07-31 01:49:00,
2013-07-30 21:54:00,78.7,68.9,30.13,West,261,4.0,7.0,72,0.00,,,0.00,Wunderground v.1.15,2013-07-31 01:54:00,
2013-07-30 21:59:00,78.7,68.9,30.13,West,260,5.0,7.0,72,0.00,,,0.00,Wunderground v.1.15,2013-07-31 01:59:00,
2013-07-30 22:04:00,78.7,68.9,30.13,West,260,5.0,6.0,72,0.00,,,0.00,Wunderground v.1.15,2013-07-31 02:04:00,
2013-07-30 22:09:00,78.7,68.9,30.13,West,260,4.0,6.0,72,0.00,,,0.00,Wunderground v.1.15,2013-07-31 02:09:00,
2013-07-30 22:14:00,78.7,69.3,30.13,West,260,4.0,6.0,73,0.00,,,0.00,Wunderground v.1.15,2013-07-31 02:14:00,
2013-07-30 22:19:00,78.7,68.9,30.13,West,260,5.0,6.0,72,0.00,,,0.00,Wunderground v.1.15,2013-07-31 02:19:00,
2013-07-30 22:24:00,78.7,70.1,30.13,West,260,5.0,6.0,75,0.00,,,0.00,Wunderground v.1.15,2013-07-31 02:24:00,
2013-07-30 22:29:00,78.7,69.3,30.13,West,260,4.0,6.0,73,0.00,,,0.00,Wunderground v.1.15,2013-07-31 02:29:00,
2013-07-30 22:34:00,78.7,69.3,30.13,West,260,5.0,6.0,73,0.00,,,0.00,Wunderground v.1.15,2013-07-31 02:34:00,
2013-07-30 22:39:00,78.7,69.3,30.13,West,260,6.0,7.0,73,0.00,,,0.00,Wunderground v.1.15,2013-07-31 02:39:00,
2013-07-30 22:44:00,78.7,70.1,30.13,West,259,5.0,7.0,75,0.00,,,0.00,Wunderground v.1.15,2013-07-31 02:44:00,
2013-07-30 22:49:00,78.6,70.0,30.13,WSW,257,6.0,9.0,75,0.00,,,0.00,Wunderground v.1.15,2013-07-31 02:49:00,
2013-07-30 22:54:00,78.5,69.9,30.13,WSW,257,5.0,6.0,75,0.00,,,0.00,Wunderground v.1.15,2013-07-31 02:54:00,
2013-07-30 22:59:00,78.4,69.8,30.13,WSW,257,4.0,6.0,75,0.00,,,0.00,Wunderground v.1.15,2013-07-31 02:59:00,
2013-07-30 23:04:00,78.3,69.3,30.13,WSW,257,5.0,6.0,74,0.00,,,0.00,Wunderground v.1.15,2013-07-31 03:04:00,
2013-07-30 23:09:00,78.2,70.0,30.13,WSW,256,4.0,7.0,76,0.00,,,0.00,Wunderground v.1.15,2013-07-31 03:09:00,
2013-07-30 23:14:00,78.2,69.6,30.13,WSW,256,5.0,6.0,75,0.00,,,0.00,Wunderground v.1.15,2013-07-31 03:14:00,
2013-07-30 23:19:00,78.1,68.7,30.13,WSW,255,7.0,7.0,73,0.00,,,0.00,Wunderground v.1.15,2013-07-31 03:19:00,
2013-07-30 23:24:00,78.2,70.0,30.13,WSW,253,5.0,7.0,76,0.00,,,0.00,Wunderground v.1.15,2013-07-31 03:24:00,
2013-07-30 23:29:00,78.2,70.8,30.13,WSW,249,5.0,7.0,78,0.00,,,0.00,Wunderground v.1.15,2013-07-31 03:29:00,
2013-07-30 23:34:00,78.1,70.7,30.13,WSW,248,6.0,7.0,78,0.00,,,0.00,Wunderground v.1.15,2013-07-31 03:34:00,
2013-07-30 23:39:00,78.0,71.0,30.13,WSW,247,6.0,7.0,79,0.00,,,0.00,Wunderground v.1.15,2013-07-31 03:39:00,
2013-07-30 23:44:00,78.0,71.3,30.13,WSW,240,4.0,7.0,80,0.00,,,0.00,Wunderground v.1.15,2013-07-31 03:44:00,
2013-07-30 23:49:00,77.8,70.8,30.12,WSW,240,5.0,7.0,79,0.00,,,0.00,Wunderground v.1.15,2013-07-31 03:49:00,
2013-07-30 23:54:00,77.7,70.3,30.12,WSW,238,6.0,7.0,78,0.00,,,0.00,Wunderground v.1.15,2013-07-31 03:54:00,
2013-07-30 23:59:00,77.7,70.7,30.12,SW,217,10.0,11.0,79,0.00,,,0.00,Wunderground v.1.15,2013-07-31 03:59:00,